ATC401 HTKJ-HTZA

Flight info

Callsign ATC401
Flight time 0h 52m
Altitude 31000
Route OKNES2D OKNES DCT ASOLE DCT EPTEL DCT DUNDO DCT EGPET DCT NEVAB DCT GADBU
Aircraft B38M/M-SDE1FGHILORVWXY/HB1

Departure

Time 2026-05-04 22:23
Airport Kilimanjaro International Airport (HTKJ)

Arrival

Time 2026-05-04 23:15
Airport Abeid Amani Karume International Airport (HTZA)
Time Latitude Longitude Altitude Speed Heading
2026-05-04 22:06 -3.42534 37.06258 2993 ft 0 kts 117°
2026-05-04 22:14 -3.42535 37.06260 2939 ft 0 kts 117°
2026-05-04 22:16 -3.42539 37.06264 2931 ft 4 kts 127°
2026-05-04 22:16 -3.42576 37.06308 2939 ft 11 kts 128°
2026-05-04 22:16 -3.42587 37.06387 2939 ft 12 kts 85°
2026-05-04 22:16 -3.42641 37.06437 2939 ft 12 kts 175°
2026-05-04 22:17 -3.42720 37.06462 2935 ft 13 kts 124°
2026-05-04 22:17 -3.42725 37.06550 2939 ft 13 kts 86°
2026-05-04 22:17 -3.42721 37.06646 2939 ft 14 kts 89°
2026-05-04 22:17 -3.42717 37.06752 2939 ft 17 kts 87°
2026-05-04 22:18 -3.42731 37.06865 2934 ft 15 kts 127°
2026-05-04 22:18 -3.42805 37.06948 2936 ft 16 kts 128°
2026-05-04 22:18 -3.42867 37.07048 2937 ft 18 kts 118°
2026-05-04 22:18 -3.42923 37.07167 2937 ft 21 kts 108°
2026-05-04 22:19 -3.42948 37.07336 2937 ft 30 kts 89°
2026-05-04 22:19 -3.42938 37.07555 2937 ft 32 kts 88°
2026-05-04 22:19 -3.42928 37.07783 2938 ft 33 kts 87°
2026-05-04 22:19 -3.42917 37.08007 2940 ft 32 kts 87°
2026-05-04 22:20 -3.42909 37.08230 2941 ft 32 kts 88°
2026-05-04 22:20 -3.42898 37.08451 2942 ft 32 kts 87°
2026-05-04 22:20 -3.42889 37.08676 2940 ft 33 kts 88°
2026-05-04 22:20 -3.42874 37.08885 2939 ft 26 kts 77°
2026-05-04 22:21 -3.42824 37.09009 2938 ft 15 kts 81°
2026-05-04 22:21 -3.42870 37.09031 2938 ft 7 kts 246°
2026-05-04 22:21 -3.42872 37.09012 2938 ft 0 kts 265°
2026-05-04 22:21 -3.42873 37.09011 2938 ft 0 kts 265°
2026-05-04 22:22 -3.42877 37.08930 2938 ft 44 kts 267°
2026-05-04 22:22 -3.42903 37.08344 2942 ft 122 kts 267°
2026-05-04 22:22 -3.42938 37.07265 2948 ft 185 kts 269°
2026-05-04 22:22 -3.43038 37.05860 3324 ft 220 kts 264°
2026-05-04 22:23 -3.43471 37.04375 4362 ft 221 kts 238°
2026-05-04 22:23 -3.44519 37.03347 5503 ft 210 kts 206°
2026-05-04 22:23 -3.45920 37.03030 6311 ft 211 kts 175°
2026-05-04 22:23 -3.47322 37.03537 6879 ft 225 kts 144°
2026-05-04 22:24 -3.48476 37.04754 7025 ft 264 kts 124°
2026-05-04 22:24 -3.49331 37.06544 6948 ft 308 kts 108°
2026-05-04 22:24 -3.49892 37.08791 6802 ft 348 kts 102°
2026-05-04 22:24 -3.50242 37.10998 8905 ft 299 kts 99°
2026-05-04 22:25 -3.50801 37.12947 10464 ft 289 kts 116°
2026-05-04 22:25 -3.52030 37.14603 11004 ft 308 kts 136°
2026-05-04 22:25 -3.53686 37.16071 11419 ft 327 kts 137°
2026-05-04 22:25 -3.55425 37.17590 12020 ft 338 kts 137°
2026-05-04 22:26 -3.57197 37.19119 12803 ft 341 kts 137°
2026-05-04 22:26 -3.59010 37.20671 13601 ft 345 kts 137°
2026-05-04 22:26 -3.60852 37.22239 14322 ft 349 kts 138°
2026-05-04 22:26 -3.62710 37.23818 15016 ft 352 kts 138°
2026-05-04 22:27 -3.64591 37.25414 15670 ft 356 kts 138°
2026-05-04 22:27 -3.66492 37.27028 16322 ft 359 kts 138°
2026-05-04 22:27 -3.68402 37.28649 16949 ft 362 kts 138°
2026-05-04 22:27 -3.70333 37.30288 17604 ft 365 kts 138°
2026-05-04 22:28 -3.72281 37.31942 18211 ft 368 kts 138°
2026-05-04 22:28 -3.74241 37.33604 18733 ft 370 kts 138°
2026-05-04 22:28 -3.76188 37.35257 19239 ft 373 kts 138°
2026-05-04 22:28 -3.78173 37.36942 19736 ft 375 kts 139°
2026-05-04 22:29 -3.80169 37.38636 20234 ft 378 kts 139°
2026-05-04 22:29 -3.82181 37.40344 20724 ft 380 kts 139°
2026-05-04 22:29 -3.84206 37.42064 21208 ft 382 kts 139°
2026-05-04 22:29 -3.86238 37.43790 21677 ft 385 kts 139°
2026-05-04 22:30 -3.88289 37.45531 22160 ft 387 kts 139°
2026-05-04 22:30 -3.90356 37.47286 22623 ft 390 kts 139°
2026-05-04 22:30 -3.92434 37.49052 23075 ft 393 kts 139°
2026-05-04 22:30 -3.94528 37.50830 23504 ft 396 kts 139°
2026-05-04 22:31 -3.96634 37.52619 23879 ft 398 kts 139°
2026-05-04 22:31 -3.98752 37.54419 24241 ft 400 kts 139°
2026-05-04 22:31 -4.00881 37.56227 24599 ft 402 kts 139°
2026-05-04 22:31 -4.03017 37.58042 24946 ft 405 kts 139°
2026-05-04 22:32 -4.05170 37.59872 25289 ft 407 kts 139°
2026-05-04 22:32 -4.07338 37.61713 25639 ft 410 kts 139°
2026-05-04 22:32 -4.09521 37.63568 25988 ft 412 kts 139°
2026-05-04 22:32 -4.11712 37.65430 26341 ft 414 kts 139°
2026-05-04 22:33 -4.13914 37.67302 26685 ft 416 kts 139°
2026-05-04 22:33 -4.16128 37.69183 27036 ft 418 kts 139°
2026-05-04 22:33 -4.18326 37.71051 27362 ft 421 kts 139°
2026-05-04 22:33 -4.20564 37.72955 27697 ft 423 kts 139°
2026-05-04 22:34 -4.22817 37.74870 28032 ft 426 kts 139°
2026-05-04 22:34 -4.25081 37.76795 28366 ft 428 kts 139°
2026-05-04 22:34 -4.27355 37.78728 28692 ft 430 kts 139°
2026-05-04 22:34 -4.29649 37.80679 29013 ft 432 kts 139°
2026-05-04 22:35 -4.31947 37.82633 29316 ft 435 kts 139°
2026-05-04 22:35 -4.34258 37.84599 29641 ft 437 kts 139°
2026-05-04 22:35 -4.36587 37.86580 29949 ft 439 kts 139°
2026-05-04 22:35 -4.38922 37.88566 30228 ft 441 kts 139°
2026-05-04 22:36 -4.41272 37.90565 30490 ft 443 kts 139°
2026-05-04 22:36 -4.43596 37.92542 30745 ft 445 kts 138°
2026-05-04 22:36 -4.45957 37.94551 30996 ft 446 kts 139°
2026-05-04 22:37 -4.50730 37.98613 31066 ft 451 kts 139°
2026-05-04 22:37 -4.55514 38.02684 31059 ft 451 kts 139°
2026-05-04 22:37 -4.57887 38.04704 31067 ft 439 kts 139°
2026-05-04 22:38 -4.60189 38.06664 31065 ft 431 kts 139°
2026-05-04 22:38 -4.64747 38.10545 31060 ft 428 kts 139°
2026-05-04 22:39 -4.69268 38.14395 31061 ft 428 kts 139°
2026-05-04 22:39 -4.73811 38.18264 31062 ft 428 kts 139°
2026-05-04 22:40 -4.76849 38.20852 31063 ft 428 kts 138°
2026-05-04 22:41 -4.77552 38.21451 31060 ft 428 kts 138°
2026-05-04 22:41 -4.79792 38.23358 31058 ft 428 kts 139°
2026-05-04 22:42 -4.84336 38.27231 31061 ft 428 kts 139°
2026-05-04 22:42 -4.88889 38.31111 31058 ft 429 kts 139°
2026-05-04 22:43 -4.93428 38.34981 31055 ft 429 kts 139°
2026-05-04 22:43 -4.97980 38.38861 31045 ft 429 kts 139°
2026-05-04 22:44 -5.02496 38.42712 31040 ft 429 kts 139°
2026-05-04 22:44 -5.07092 38.46536 31038 ft 429 kts 142°
2026-05-04 22:45 -5.11836 38.50168 31030 ft 429 kts 141°
2026-05-04 22:45 -5.18953 38.55660 31017 ft 430 kts 141°
2026-05-04 22:46 -5.23662 38.59296 31017 ft 429 kts 141°
2026-05-04 22:46 -5.28407 38.62960 31015 ft 429 kts 141°
2026-05-04 22:47 -5.33156 38.66630 31006 ft 429 kts 141°
2026-05-04 22:47 -5.37865 38.70269 32295 ft 429 kts 142°
2026-05-04 22:48 -5.40255 38.72116 31706 ft 439 kts 142°
2026-05-04 22:48 -5.42707 38.74008 29500 ft 445 kts 141°
2026-05-04 22:48 -5.45168 38.75912 28586 ft 450 kts 141°
2026-05-04 22:48 -5.47655 38.77835 27695 ft 453 kts 141°
2026-05-04 22:49 -5.50148 38.79762 26771 ft 447 kts 141°
2026-05-04 22:49 -5.52594 38.81653 25852 ft 442 kts 141°
2026-05-04 22:49 -5.55019 38.83528 24931 ft 437 kts 141°
2026-05-04 22:49 -5.57396 38.85367 23909 ft 437 kts 141°
2026-05-04 22:50 -5.59799 38.87226 22805 ft 435 kts 141°
2026-05-04 22:50 -5.62189 38.89075 21665 ft 433 kts 141°
2026-05-04 22:50 -5.64568 38.90915 20561 ft 430 kts 140°
2026-05-04 22:50 -5.66928 38.92741 19513 ft 427 kts 140°
2026-05-04 22:51 -5.69273 38.94556 18416 ft 425 kts 140°
2026-05-04 22:51 -5.71608 38.96361 17199 ft 423 kts 140°
2026-05-04 22:51 -5.73928 38.98156 15982 ft 420 kts 141°
2026-05-04 22:51 -5.76242 38.99948 14775 ft 419 kts 141°
2026-05-04 22:52 -5.78546 39.01732 13658 ft 416 kts 141°
2026-05-04 22:52 -5.80799 39.03476 12839 ft 403 kts 141°
2026-05-04 22:52 -5.82988 39.05171 12029 ft 392 kts 141°
2026-05-04 22:52 -5.85121 39.06823 11241 ft 382 kts 142°
2026-05-04 22:53 -5.87200 39.08433 10482 ft 374 kts 142°
2026-05-04 22:53 -5.89241 39.10013 9717 ft 366 kts 142°
2026-05-04 22:53 -5.91234 39.11557 8891 ft 359 kts 142°
2026-05-04 22:53 -5.93198 39.13078 8083 ft 353 kts 142°
2026-05-04 22:54 -5.95127 39.14573 7304 ft 347 kts 143°
2026-05-04 22:54 -5.97024 39.16042 6538 ft 342 kts 143°
2026-05-04 22:54 -5.98891 39.17489 5787 ft 336 kts 143°
2026-05-04 22:54 -6.00718 39.18905 5101 ft 328 kts 143°
2026-05-04 22:55 -6.02589 39.20165 4401 ft 321 kts 155°
2026-05-04 22:55 -6.04703 39.20779 3696 ft 315 kts 172°
2026-05-04 22:55 -6.06858 39.20961 3180 ft 305 kts 175°
2026-05-04 22:55 -6.08932 39.21153 2712 ft 295 kts 174°
2026-05-04 22:56 -6.10941 39.21358 2255 ft 285 kts 174°
2026-05-04 22:56 -6.12886 39.21554 1815 ft 277 kts 174°
2026-05-04 22:56 -6.14776 39.21744 1393 ft 269 kts 174°
2026-05-04 22:56 -6.16602 39.21927 991 ft 255 kts 174°
2026-05-04 22:57 -6.18299 39.22097 660 ft 238 kts 174°
2026-05-04 22:57 -6.19945 39.22258 710 ft 238 kts 175°
2026-05-04 22:57 -6.21577 39.22424 1440 ft 237 kts 174°
2026-05-04 22:57 -6.23232 39.22583 1905 ft 237 kts 176°
2026-05-04 22:58 -6.24871 39.22708 2355 ft 237 kts 176°
2026-05-04 22:58 -6.26521 39.22835 2848 ft 239 kts 176°
2026-05-04 22:58 -6.28178 39.23013 2971 ft 239 kts 172°
2026-05-04 22:58 -6.29813 39.23305 2965 ft 240 kts 163°
2026-05-04 22:59 -6.31191 39.24213 3519 ft 242 kts 133°
2026-05-04 22:59 -6.32008 39.25719 3746 ft 251 kts 104°
2026-05-04 22:59 -6.31892 39.27463 3616 ft 256 kts 72°
2026-05-04 22:59 -6.31205 39.29117 3580 ft 258 kts 75°
2026-05-04 23:00 -6.30677 39.30843 3547 ft 258 kts 76°
2026-05-04 23:00 -6.30152 39.32569 3562 ft 258 kts 76°
2026-05-04 23:00 -6.29616 39.34290 3585 ft 258 kts 76°
2026-05-04 23:00 -6.29075 39.36014 3558 ft 259 kts 76°
2026-05-04 23:01 -6.28531 39.37733 3551 ft 258 kts 76°
2026-05-04 23:01 -6.27987 39.39450 3545 ft 257 kts 75°
2026-05-04 23:01 -6.27109 39.41015 3524 ft 262 kts 49°
2026-05-04 23:01 -6.25574 39.42006 3544 ft 267 kts 20°
2026-05-04 23:02 -6.23742 39.42321 3567 ft 268 kts
2026-05-04 23:02 -6.21873 39.42462 3557 ft 270 kts
2026-05-04 23:02 -6.20002 39.42589 3551 ft 269 kts
2026-05-04 23:02 -6.18159 39.42719 3563 ft 269 kts
2026-05-04 23:03 -6.16299 39.42851 3494 ft 266 kts
2026-05-04 23:03 -6.14442 39.42985 3122 ft 268 kts
2026-05-04 23:03 -6.12591 39.43126 2833 ft 264 kts
2026-05-04 23:03 -6.10780 39.43267 2719 ft 257 kts
2026-05-04 23:04 -6.09016 39.43406 2701 ft 251 kts
2026-05-04 23:04 -6.07286 39.43534 2684 ft 248 kts
2026-05-04 23:04 -6.05561 39.43667 2685 ft 249 kts
2026-05-04 23:04 -6.03841 39.43537 2663 ft 248 kts 348°
2026-05-04 23:05 -6.02151 39.43188 2673 ft 249 kts 347°
2026-05-04 23:05 -6.00502 39.42733 2488 ft 244 kts 333°
2026-05-04 23:05 -5.99240 39.41649 2126 ft 236 kts 301°
2026-05-04 23:05 -5.98517 39.40235 2078 ft 223 kts 287°
2026-05-04 23:06 -5.98074 39.38817 2067 ft 203 kts 282°
2026-05-04 23:06 -5.97698 39.37455 2057 ft 202 kts 282°
2026-05-04 23:06 -5.97321 39.36091 1999 ft 203 kts 282°
2026-05-04 23:06 -5.96944 39.34758 1965 ft 197 kts 282°
2026-05-04 23:07 -5.96581 39.33445 1980 ft 194 kts 282°
2026-05-04 23:07 -5.96316 39.32115 1940 ft 191 kts 272°
2026-05-04 23:07 -5.96267 39.30786 1948 ft 190 kts 266°
2026-05-04 23:07 -5.96252 39.29473 1975 ft 190 kts 266°
2026-05-04 23:08 -5.96280 39.28146 1964 ft 189 kts 259°
2026-05-04 23:08 -5.96591 39.26878 1940 ft 186 kts 245°
2026-05-04 23:08 -5.97151 39.25723 1971 ft 183 kts 237°
2026-05-04 23:08 -5.97767 39.24608 1962 ft 183 kts 237°
2026-05-04 23:09 -5.98399 39.23499 1961 ft 183 kts 236°
2026-05-04 23:09 -5.99051 39.22405 1949 ft 182 kts 233°
2026-05-04 23:09 -5.99806 39.21396 1958 ft 180 kts 223°
2026-05-04 23:09 -6.00860 39.20800 1926 ft 170 kts 194°
2026-05-04 23:10 -6.02013 39.20615 1978 ft 167 kts 183°
2026-05-04 23:10 -6.03172 39.20628 2018 ft 166 kts 177°
2026-05-04 23:10 -6.04315 39.20708 1992 ft 164 kts 175°
2026-05-04 23:10 -6.05371 39.20805 1954 ft 166 kts 175°
2026-05-04 23:11 -6.06524 39.20918 1948 ft 167 kts 174°
2026-05-04 23:11 -6.07673 39.21031 1958 ft 165 kts 174°
2026-05-04 23:11 -6.08789 39.21142 1920 ft 158 kts 175°
2026-05-04 23:11 -6.09875 39.21252 1910 ft 156 kts 174°
2026-05-04 23:12 -6.10956 39.21360 1878 ft 155 kts 174°
2026-05-04 23:12 -6.11985 39.21464 1716 ft 144 kts 174°
2026-05-04 23:12 -6.12967 39.21561 1555 ft 140 kts 174°
2026-05-04 23:12 -6.13928 39.21658 1371 ft 139 kts 174°
2026-05-04 23:13 -6.14899 39.21756 1212 ft 141 kts 174°
2026-05-04 23:13 -6.15879 39.21854 1043 ft 142 kts 173°
2026-05-04 23:13 -6.16863 39.21950 855 ft 141 kts 175°
2026-05-04 23:13 -6.17853 39.22037 645 ft 152 kts 174°
2026-05-04 23:14 -6.18881 39.22156 516 ft 146 kts 173°
2026-05-04 23:14 -6.19887 39.22272 315 ft 147 kts 177°
2026-05-04 23:14 -6.20871 39.22368 167 ft 141 kts 176°
2026-05-04 23:14 -6.21836 39.22454 62 ft 129 kts 174°
2026-05-04 23:15 -6.22521 39.22522 56 ft 68 kts 174°
2026-05-04 23:15 -6.22906 39.22561 54 ft 52 kts 174°
2026-05-04 23:15 -6.23252 39.22596 57 ft 46 kts 174°
2026-05-04 23:15 -6.23541 39.22625 57 ft 37 kts 174°
2026-05-04 23:16 -6.23772 39.22637 51 ft 21 kts 195°
2026-05-04 23:16 -6.23811 39.22566 51 ft 13 kts 263°
2026-05-04 23:16 -6.23763 39.22475 51 ft 20 kts 349°
2026-05-04 23:16 -6.23616 39.22459 53 ft 22 kts 354°
2026-05-04 23:17 -6.23457 39.22446 55 ft 24 kts 354°
2026-05-04 23:17 -6.23289 39.22428 54 ft 25 kts 354°
2026-05-04 23:17 -6.23110 39.22411 54 ft 27 kts 354°
2026-05-04 23:17 -6.22939 39.22393 53 ft 24 kts 354°
2026-05-04 23:18 -6.22767 39.22374 57 ft 26 kts 354°
2026-05-04 23:18 -6.22583 39.22358 58 ft 27 kts 355°
2026-05-04 23:18 -6.22388 39.22338 56 ft 29 kts 354°
2026-05-04 23:18 -6.22227 39.22320 55 ft 1 kts 334°
2026-05-04 23:19 -6.22215 39.22298 57 ft 8 kts 280°
2026-05-04 23:19 -6.22216 39.22253 59 ft 0 kts 264°
2026-05-04 23:19 -6.22216 39.22248 59 ft 2 kts 264°